Location: Kervinic
(48.4279°N, 4.7373°W)
Time: 22:49:26
(UTC+00:00)

FALCON 9 DEB - Pass Details

Date: 09 April 2020
Orbit: 429 x 441 km, 53.0° (Epoch: 23 May)

Event Time Altitude Azimuth Distance (km) Brightness Sun altitude
Rises 21:01:28 0° 252° (WSW) 2,427 7.4 -18.7°
Reaches altitude 10° 21:03:36 10° 256° (WSW) 1,558 6.4 -19.0°
Maximum altitude 21:07:05 65° 339° (NNW) 488 3.5 -19.4°
Enters shadow 21:08:22 35° 49° (NE) 728 4.1 -19.6°
